STARLINK-1596, 46141

Orbit data source: Space-Track

STARLINK-1596, 46141 is a payload satellite owned by SpaceX/Seattle (US) in LEO that was launched on Tue, 18 Aug 2020 UTC via an FALCON 9 launch vehicle from the Air Force Eastern Test Range (AFETR). Payloads include a variety of satellites, spacecraft, and rockets equipped with specific instruments for various scientific and technological missions. These include communications satellites like Starlink; space stations such as the ISS; scientific satellites like the Hubble; Earth observation satellites from companies like Planet Labs, Umbra, and HawkEye 360; GPS; miniature CubeSats for education and research; and military/defense satellites.

Loading next visibility...
STARLINK-1596 details
Identifier
46141, 2020-057AA
Orbit
LEO
Last TLE update7 hours ago
Origin
Flag of USSpaceX/Seattle (US)
ManufacturerSpaceX/Seattle
MissionOperational Commercial Communications
Bus & MotorSTARLINK, Unknown motor
Mass260 kg wet, ~248 kg dry
Launch date (UTC)
2020-08-18 (4 years ago)
Launch vehicle
FALCON 9
Launch site
Air Force Eastern Test Range (AFETR)
Object type
Payload
Rocket body
Debris
Shape & HBRBox + 1 Pan, 8.86 m
Radar Cross Section13.562 m², Large (>1 m²)

Expand to show TLE details & history

TLE from 7 hours ago
0 STARLINK-1596
1 46141U 20057AA  24361.27261343  .00026467  00000-0  17889-2 0  9994
2 46141  53.0553  84.7466 0001654  64.4371 295.6789 15.06403068240549
Epoch: 2024-12-26T06:32Z
Definitive object data (Epoch: 2024-12-26T06:32:33.8Z)
Latitude-0°
Longitude-108.64862°
Altitude547.585 km
Speed7.59 km/s
True Right ascension05h 38m 59s
True Declination0° 00' 00"
Sunlit
Object was in full shadow at TLE epoch
Visualization TLE readout
Latitude49.14503°
Longitude-50.03917°
Altitude551.642 km
Speed7.593 km/s
Apparent Right ascension04h 43m 34s
Apparent Declination17° 24' 37"
Sunlit
Object is in full shadow
Visualization observer readout
Local Sidereal Time12:35:06
Azimuth301.45° NW
Elevation-8.642°
Doppler factor1
Orbital elements
Apogee altitude548.618 km
Perigee altitude546.327 km
Semi-major axis6,925.61 km
Eccentricity0.0001654
Inclination53.0553°
RAAN84.7466°
Arg. of periapsis64.4371°
True anomaly295.66182°
Mean anomaly295.6789°
Eccentric anomaly295.67036°
Mean motion3.76579 °/min
BSTAR0.0017889
Orbital period95.6 mins
Loading maneuver chart data...
Loading historical data...
Loading historical data...
Loading historical data...
Loading historical data...
Loading historical data...
Loading historical data...
Loading historical data...

STARLINK-1596 Visibility forecast

Observer location: undefined°, undefined

Span
Click to sort rows by Start time (UTC) header in descending order
Start Az.
Max El. time (UTC)
Max El. Az.
Max El.
End time (UTC)
End Az.
4 mins2024-12-26 13:20:28.279Z345.841° N2024-12-26 13:22:28.279Z19.473° NNE15.65°2024-12-26 13:24:28.279Z50.701° ENE
6 mins2024-12-26 15:00:28.279Z330.677° NNW2024-12-26 15:02:28.279Z32.305° NE37.531°2024-12-26 15:06:28.279Z111.313° ESE
4 mins2024-12-26 16:40:28.279Z258.967° W2024-12-26 16:41:28.279Z238.273° WSW21.132°2024-12-26 16:44:28.279Z183.677° SSW
6 mins2024-12-27 08:12:28.279Z213.189° SW2024-12-27 08:14:28.279Z158.661° S42.185°2024-12-27 08:18:28.279Z55.546° ENE
5 mins2024-12-27 09:52:28.279Z293.895° NW2024-12-27 09:54:28.279Z334.541° NNW22.662°2024-12-27 09:57:28.279Z27.683° NE
|